This is the latest recevied weather packets stored in our database for station/object K4DNM. If no packets are shown the sender has not sent any weather packets the latest 10 day(s).
| Time | Temp. | Humidity | Pressure | Rain* | Wind** | Luminosity | Snow |
|---|---|---|---|---|---|---|---|
| 1777989806 | 22.22° C | 62% | 1016.4 hPa | 0 mm | - | 645 W/m² | - |
| 1777989504 | 21.67° C | 63% | 1016.4 hPa | 0 mm | - | 623 W/m² | - |
| 1777989205 | 21.11° C | 64% | 1016.3 hPa | 0 mm | - | 584 W/m² | - |
| 1777988903 | 21.11° C | 65% | 1016.3 hPa | 0 mm | - | 575 W/m² | - |
| 1777988605 | 21.11° C | 65% | 1016.4 hPa | 0 mm | - | 575 W/m² | - |
| 1777988298 | 20.56° C | 66% | 1016.4 hPa | 0 mm | - | 568 W/m² | - |
| 1777987997 | 20.56° C | 66% | 1016.4 hPa | 0 mm | - | 533 W/m² | - |
| 1777987698 | 20.56° C | 66% | 1016.4 hPa | 0 mm | - | 463 W/m² | - |
| 1777987398 | 20.56° C | 68% | 1016.4 hPa | 0 mm | - | 444 W/m² | - |
| 1777987158 | 20° C | 68% | 1016.4 hPa | 0 mm | - | 475 W/m² | - |
| 1777986859 | 19.44° C | 68% | 1016.5 hPa | 0 mm | - | 474 W/m² | - |
| 1777986498 | 19.44° C | 69% | 1016.6 hPa | 0 mm | - | 452 W/m² | - |
| 1777986198 | 18.89° C | 69% | 1016.6 hPa | 0 mm | - | 422 W/m² | - |
| 1777985899 | 18.89° C | 70% | 1016.6 hPa | 0 mm | - | 408 W/m² | - |
| 1777985599 | 18.89° C | 70% | 1016.6 hPa | 0 mm | - | 392 W/m² | - |
| 1777985299 | 18.89° C | 70% | 1016.6 hPa | 0 mm | - | 376 W/m² | - |
| 1777984999 | 18.33° C | 70% | 1016.6 hPa | 0 mm | - | 353 W/m² | - |
| 1777984696 | 18.33° C | 71% | 1016.7 hPa | 0 mm | - | 333 W/m² | - |
| 1777984395 | 17.78° C | 72% | 1016.6 hPa | 0 mm | - | 304 W/m² | - |
| 1777984156 | 17.78° C | 70% | 1016.5 hPa | 0 mm | - | 294 W/m² | - |
| 1777983796 | 17.22° C | 72% | 1016.6 hPa | 0 mm | - | 276 W/m² | - |
| 1777983556 | 16.67° C | 74% | 1016.6 hPa | 0 mm | - | 254 W/m² | - |
| 1777983196 | 16.11° C | 75% | 1016.6 hPa | 0 mm | - | 238 W/m² | - |
| 1777982896 | 15.56° C | 77% | 1016.6 hPa | 0 mm | - | 221 W/m² | - |
| 1777982657 | 15.56° C | 79% | 1016.5 hPa | 0 mm | - | 198 W/m² | - |
* Rain latest hour (hover to see other rain measurements)
** Current wind speed in m/s (hover to see current wind gust speed)